DW8548 Weather Reports


time (UTC)temp
F
wind
direction
speed
knots
gust
knots
rain 1hr
in
rain 24hr
in
rain mn
in
humidity
%
barometer
mb
20260901203102 57 0 0.9 3.5 0.00 0.00 0.00 68 1021.3
20260901201601 57 259 1.7 3.5 0.00 0.00 0.00 68 1021.4
20260901194606 56 0 0.0 0.9 0.00 0.00 0.00 67 1021.5
20260901193104 56 0 0.0 2.6 0.00 0.00 0.00 68 1021.4
20260901191604 56 0 0.0 1.7 0.00 0.00 0.00 68 1021.6
20260901190104 56 0 0.0 0.9 0.00 0.00 0.00 69 1021.7
20260901184607 56 0 0.0 1.7 0.00 0.00 0.00 69 1021.9
20260901183121 56 0 0.0 0.9 0.00 0.00 0.00 71 1022.0
20260901181602 55 0 0.0 0.9 0.00 0.00 0.00 75 1022.0
20260901180105 55 0 0.0 0.9 0.00 0.00 0.00 78 1022.1
20260901174606 55 0 0.0 0.0 0.00 0.00 0.00 80 1022.1
20260901173151 55 0 0.0 0.0 0.00 0.00 0.00 82 1022.2
20260901171606 54 0 0.0 0.0 0.00 0.00 0.00 82 1022.2
20260901170108 55 0 0.0 0.0 0.00 0.00 0.00 81 1022.2
20260901164610 55 0 0.0 0.0 0.00 0.00 0.00 80 1022.2
20260901163119 55 0 0.0 0.0 0.00 0.00 0.00 80 1022.3
20260901161607 55 0 0.0 0.0 0.00 0.00 0.00 79 1022.4
20260901160104 55 0 0.0 0.9 0.00 0.00 0.00 80 1022.5
20260901154606 55 0 0.0 0.9 0.00 0.00 0.00 81 1022.6
20260901153103 55 206 0.0 0.9 0.00 0.00 0.00 79 1022.6
20260901151602 55 0 0.0 0.0 0.00 0.00 0.00 79 1022.6
20260901150107 55 0 0.0 0.0 0.00 0.00 0.00 78 1022.7
20260901144606 55 0 0.0 0.0 0.00 0.00 0.00 80 1022.9
20260901143109 55 0 0.0 0.0 0.00 0.00 0.00 79 1023.1
20260901141614 55 0 0.0 0.0 0.00 0.00 0.00 80 1023.2
20260901140106 55 0 0.0 0.0 0.00 0.00 0.00 80 1023.4
20260901134606 56 0 0.0 0.0 0.00 0.00 0.00 78 1023.4
20260901133106 56 0 0.0 0.0 0.00 0.00 0.00 75 1023.5
20260901131601 56 0 0.0 0.0 0.00 0.00 0.00 76 1023.5
20260901130107 56 0 0.0 0.0 0.00 0.00 0.00 75 1023.5
20260901124605 56 0 0.0 0.0 0.00 0.00 0.00 74 1023.6
20260901123105 56 0 0.0 0.0 0.00 0.00 0.00 74 1023.5
20260901121604 56 0 0.0 0.0 0.00 0.00 0.00 73 1023.6
20260901120110 56 0 0.0 0.0 0.00 0.00 0.00 73 1023.5
20260901114621 56 0 0.0 0.0 0.00 0.00 0.00 72 1023.4
20260901113107 56 0 0.0 0.0 0.00 0.00 0.00 71 1023.5
20260901111609 56 0 0.0 0.0 0.00 0.00 0.00 71 1023.5
20260901110108 56 0 0.0 0.0 0.00 0.00 0.00 71 1023.3
20260901104605 57 0 0.0 1.7 0.00 0.00 0.00 71 1023.2
20260901103104 57 206 0.0 0.9 0.00 0.00 0.00 70 1023.3
20260901101609 57 0 0.0 0.9 0.00 0.00 0.00 69 1023.4
20260901100111 58 0 0.0 1.7 0.00 0.00 0.00 68 1023.3
20260901094602 58 0 0.0 1.7 0.00 0.00 0.00 68 1023.2
20260901093104 59 194 0.0 0.9 0.00 0.00 0.00 67 1023.3
20260901091606 59 0 0.0 1.7 0.00 0.00 0.00 65 1023.3
20260901090105 59 0 0.0 2.6 0.00 0.00 0.00 64 1023.5
20260901084626 60 0 0.0 3.5 0.00 0.00 0.00 61 1023.4
20260901083103 61 270 0.0 2.6 0.00 0.00 0.00 59 1023.2
20260901081603 61 121 0.0 2.6 0.00 0.00 0.00 58 1023.1
20260901080114 61 247 0.9 3.5 0.00 0.00 0.00 57 1023.0
20260901074616 62 227 0.9 5.2 0.00 0.00 0.00 57 1023.0
20260901073108 63 0 0.9 6.1 0.00 0.00 0.00 55 1023.0
20260901071608 63 210 0.9 7.0 0.00 0.00 0.00 54 1023.1
20260901070103 64 272 1.7 5.2 0.00 0.00 0.00 53 1023.0
20260901064604 63 267 0.9 6.1 0.00 0.00 0.00 52 1023.1
20260901063105 64 182 0.9 7.0 0.00 0.00 0.00 52 1023.0
20260901061605 64 205 1.7 5.2 0.00 0.00 0.00 52 1023.1
20260901060105 64 0 0.9 5.2 0.00 0.00 0.00 52 1023.2
20260901054602 64 267 1.7 5.2 0.00 0.00 0.00 51 1023.5
20260901053114 64 248 0.9 4.3 0.00 0.00 0.00 51 1023.5
20260901051614 64 185 0.9 6.1 0.00 0.00 0.00 51 1023.7
20260901050108 64 247 0.9 3.5 0.00 0.00 0.00 51 1023.8
20260901044605 63 238 0.9 5.2 0.00 0.00 0.00 51 1023.8
20260901043109 63 245 0.9 5.2 0.00 0.00 0.00 52 1023.9
20260901041622 64 245 1.7 3.5 0.00 0.00 0.00 48 1024.1
20260901040138 63 158 0.9 2.6 0.00 0.00 0.00 49 1024.2
20260901034611 63 71 0.0 4.3 0.00 0.00 0.00 51 1024.4
20260901033106 63 207 0.9 6.1 0.00 0.00 0.00 52 1024.5
20260901031604 63 180 0.9 3.5 0.00 0.00 0.00 53 1024.6
20260901030111 62 0 0.0 1.7 0.00 0.00 0.00 52 1024.6
20260901024608 61 250 0.0 1.7 0.00 0.00 0.00 53 1024.6
20260901023107 62 0 0.9 3.5 0.00 0.00 0.00 53 1024.6
20260901021606 61 0 0.9 3.5 0.00 0.00 0.00 54 1024.7
20260901014609 60 131 1.7 7.0 0.00 0.00 0.00 59 1024.8
20260901013104 59 0 0.9 5.2 0.00 0.00 0.00 63 1024.9
20260901011603 59 76 0.9 5.2 0.00 0.00 0.00 67 1024.9
20260901010115 59 0 0.9 3.5 0.00 0.00 0.00 70 1024.9
20260901004606 58 0 0.9 4.3 0.00 0.00 0.00 73 1024.8
20260901003110 55 0 0.0 2.6 0.00 0.00 0.00 80 1024.5
20260901001604 53 0 0.0 3.5 0.00 0.00 0.00 84 1024.6
20260901000113 52 0 0.9 3.5 0.00 0.00 0.00 88 1024.5
20260831234601 50 103 0.0 1.7 0.00 0.00 0.00 90 1024.3
20260831233125 49 0 0.0 0.9 0.00 0.00 0.00 91 1024.4
20260831231608 48 0 0.0 0.0 0.00 0.00 0.00 91 1024.3
20260831230115 47 0 0.0 0.0 0.00 0.00 0.00 91 1024.0
20260831224601 45 0 0.0 0.0 0.00 0.00 0.00 91 1023.8
20260831223112 46 0 0.0 0.0 0.00 0.00 0.00 91 1023.5
20260831221601 46 0 0.0 0.0 0.00 0.00 0.00 90 1023.4
20260831220059 46 0 0.0 0.0 0.00 0.00 0.00 90 1023.5
20260831214611 46 0 0.0 0.0 0.00 0.00 0.00 90 1023.3
20260831213110 46 0 0.0 0.0 0.00 0.00 0.00 89 1023.2
20260831211607 47 0 0.0 0.0 0.00 0.00 0.00 90 1023.1
20260831210100 47 0 0.0 0.0 0.00 0.00 0.00 89 1023.1
20260831204609 48 0 0.0 0.0 0.00 0.00 0.00 89 1022.9